Location: Taukkyan
(23.1052°N, 94.0030°E)
Time: 22:02:57
(UTC+00:00)

Cosmos 2061 Rocket - Pass Details

Date: 06 July 2020
Orbit: 965 x 1014 km, 82.9° (Epoch: 05 August)

Event Time Altitude Azimuth Distance (km) Brightness Sun altitude
Exits shadow 20:29:43 58° 308° (NW) 1,162 4.2 -29.9°
Drops below altitude 10° 20:35:16 10° 356° (N) 2,772 6.8 -29.0°
Sets 20:37:49 0° 360° (N) 3,717 7.7 -28.6°
